Simultaneous Nadir Overpasses (SNOs) Predictions

Prediction of SNOs between GOES-17 and METOP-C Satellite Orbit:

Table of predicted SNOs for the next 14.0 days since TLE Epoch: 12/31/2022
Index Date Time (GOES-17) GOES-17 Lat,Lon METOP-C Lat,Lon Distance(km) Time Diff (sec)
1 12/31/2022 18:35:48 0.01,-137.33 -0.28,-136.03 148.38 80
2 01/02/2023 06:52:08 0.00,-137.32 -0.72,-140.63 376.51 80
3 01/03/2023 06:34:09 0.00,-137.32 0.41,-135.64 192.09 80
4 01/04/2023 18:50:19 -0.00,-137.31 0.66,-140.18 328.15 80
5 01/05/2023 18:32:20 -0.00,-137.30 -0.47,-135.19 240.23 80
6 01/07/2023 06:48:39 -0.00,-137.27 -0.59,-139.77 285.58 80
7 01/08/2023 06:30:40 -0.01,-137.26 0.54,-134.78 282.52 80
8 01/09/2023 18:46:50 0.02,-137.24 0.50,-139.33 238.29 80
9 01/10/2023 18:28:51 0.03,-137.23 -0.64,-134.34 329.69 80
10 01/12/2023 06:45:10 -0.03,-137.20 -0.43,-138.92 196.83 80
11 01/13/2023 06:27:10 -0.03,-137.18 0.71,-133.93 370.76 80
